This is the latest recevied weather packets stored in our database for station/object W4CKA. If no packets are shown the sender has not sent any weather packets the latest 10 day(s).
| Time | Temp. | Humidity | Pressure | Rain* | Wind** | Luminosity | Snow |
|---|---|---|---|---|---|---|---|
| 1777477362 | 19.44° C | 84% | 1054.7 hPa | 0 mm | - | 198 W/m² | - |
| 1777476762 | 19.44° C | 85% | 1054.8 hPa | 0 mm | - | 259 W/m² | - |
| 1777476161 | 19.44° C | 86% | 1054.8 hPa | 0 mm | - | 166 W/m² | - |
| 1777475559 | 18.89° C | 87% | 1054.6 hPa | 0 mm | - | 190 W/m² | - |
| 1777474956 | 18.89° C | 88% | 1054.9 hPa | 0 mm | - | 137 W/m² | - |
| 1777474356 | 18.89° C | 87% | 1054.7 hPa | 0 mm | - | 98 W/m² | - |
| 1777473756 | 18.89° C | 87% | 1054.8 hPa | 0 mm | - | 89 W/m² | - |
| 1777473154 | 18.89° C | 87% | 1054.7 hPa | 0 mm | - | 179 W/m² | - |
| 1777472552 | 18.89° C | 90% | 1054.5 hPa | 0 mm | - | 150 W/m² | - |
| 1777471952 | 18.89° C | 88% | 1054.5 hPa | 0 mm | - | 120 W/m² | - |
| 1777471351 | 18.89° C | 91% | 1054.6 hPa | 0 mm | - | 111 W/m² | - |
| 1777470750 | 18.33° C | 92% | 1054.7 hPa | 0 mm | - | 113 W/m² | - |
| 1777470149 | 18.33° C | 91% | 1055 hPa | 0 mm | - | 56 W/m² | - |
| 1777469547 | 18.33° C | 92% | 1054.9 hPa | 0 mm | - | 87 W/m² | - |
| 1777468942 | 18.33° C | 93% | 1054.8 hPa | 0 mm | - | 94 W/m² | - |
| 1777468342 | 17.78° C | 93% | 1054.9 hPa | 0 mm | - | 94 W/m² | - |
| 1777467740 | 17.78° C | 94% | 1054.9 hPa | 0 mm | - | 120 W/m² | - |
| 1777467136 | 17.78° C | 97% | 1055 hPa | 0 mm | - | 70 W/m² | - |
| 1777466532 | 17.78° C | 98% | 1054.9 hPa | 0 mm | - | 106 W/m² | - |
| 1777465930 | 17.22° C | 98% | 1055 hPa | 0 mm | - | 61 W/m² | - |
| 1777465328 | 17.22° C | 98% | 1055.1 hPa | 0 mm | - | 50 W/m² | - |
| 1777464728 | 16.67° C | 99% | 1055.3 hPa | 0 mm | - | 45 W/m² | - |
| 1777464126 | 16.67° C | 99% | 1055.4 hPa | 0 mm | - | 22 W/m² | - |
| 1777463527 | 16.67° C | 99% | 1055.1 hPa | 0 mm | - | 18 W/m² | - |
| 1777462924 | 16.67° C | 99% | 1054.8 hPa | 0 mm | - | 18 W/m² | - |
* Rain latest hour (hover to see other rain measurements)
** Current wind speed in m/s (hover to see current wind gust speed)